User: anonymous   Login
Location: Unspecified
(0.0000°N, 0.0000°E)
Time: 16:44:39
(UTC+00:00)
Language:

DNEPR OBJECT AF - Orbit

View from above orbital plane
View from above orbital plane
View from above satellite
View from above satellite

Ground track
Ground track

The orbit data is extracted from the following two-line orbital elements,

1 39445U 13066AF  18344.94375366 +.00000223 +00000-0 +34150-4 0  9998
2 39445 097.5745 005.6684 0056792 292.2075 067.3119 14.81682849271209
Epoch (UTC): 10 December 2018 22:39:00
Eccentricity: 0.0056792
inclination: 97.5745°
perigee height: 584 km
apogee height: 664 km
right ascension of ascending node: 5.6684°
argument of perigee: 292.2075°
revolutions per day: 14.81682849
mean anomaly at epoch: 67.3119°
orbit number at epoch: 27120

The dashed part of the orbit path shows where the satellite is in the earth's shadow,  

DLR